Погода в Долматовке

Украина / Херсонская область     46°12′49″N   32°27′59″E
темп.,
°C
ветер,
м/с
пор.,
м/с
влажн.,
%
обл.,
%
осадки,
мм/ч
давл.,
гПа
погр.,
м
9 мая, вс
вс900:00+9ссз7126683 0.0 1017675
03:00+7ссз612735 0.0 1020519
06:00+6ссз510780 0.0 1022375
09:00+10ссз79500 0.0 10241010
12:00+14ссз78385 0.0 10241872
15:00+16сз783381 0.0 10252745
18:00+15сз573557 0.0 10252413
21:00+10з486646 0.0 1027163
10 мая, пн
пн1000:00+9сз337193 0.0 102838
03:00+9ссв226449 0.0 102814
06:00+8св34645 0.0 102860
09:00+13св44470 0.0 1028753
12:00+16с45355 0.0 10272098
15:00+18с55325 0.0 10252343
18:00+17с67395 0.0 10241790
21:00+11сз46635 0.0 102488
11 мая, вт
вт1100:00+10ссз345789 0.0 102346
03:00+8ссз49664 0.0 1022169
06:00+7ссз511735 0.0 1020256
09:00+12ссз7105598 0.0 1019610
12:00+17с565536 0.0 10181115
15:00+17ссв4559100 0.0 10161126
18:00+14св4775100 0.3 1016561
21:00+12ссв2686100 1.0 1016371
12 мая, ср
ср1200:00+9ссв46893 0.1 1015131
03:00+7ссв47875 0.1 1014127
06:00+7с3485100 0.0 1013103
09:00+10с2274100 0.0 1013518
12:00+12юз2262100 0.1 10131208
15:00+15зюз445279 0.4 10121662
18:00+14юз4351100 0.0 10131117
21:00+9юз22710 0.0 101313
13 мая, чт
чт1300:00+8юв22755 0.0 101311
03:00+8в2276100 0.0 101214
06:00+9в4585100 0.0 101297
09:00+15вюв566720 0.0 1011520
12:00+19юв675598 0.0 1010968
15:00+19ююз6651100 0.0 1011972
18:00+16ююз57545 0.0 1011525
21:00+12ююз33864 0.0 101140